Tracking 30995 objects as of 5-Jul-2025
HD Live streaming from Space Station
objects crossing your sky now

NOAA 16 DEB

Track NOAA 16 DEB now!
10-day predictions


NORAD ID: 42384
Int'l Code: 2000-055SC
Perigee: 789.5 km
Apogee: 807.3 km
Inclination: 98.7 °
Period: 100.7 minutes
Semi major axis: 7169 km
RCS: Unknown
Launch date: September 21, 2000
Source: United States (US)
Launch site: AIR FORCE WESTERN TEST RANGE (AFWTR)

Note: This is SATELLITE DEBRIS
Your satellite tracking list
Your tracking list is empty




NASA's NSSDC Master Catalog

Two Line Element Set (TLE):
1 42384U 00055SC  25184.45058386  .00003409  00000-0  13336-2 0  9994
2 42384  98.6836 257.4989 0012381 242.8403 117.1517 14.30142847482062
Source of the keplerian elements: AFSPC